Theta_e
310 309 308 307 307 308 312 312 314 306 303 299 298 296 294 293 292 292 291 290 289 288 287 288 289 289 290 291 293 294 298 297 299 300 301 305 304 304 306 307 306 309 309 310
312 310 308 306 307 308 307 306 305 303 301 298 296 295 294 292 291 291 290 289 288 286 286 287 287 288 290 290 294 294 297 294 296 299 299 301 297 299 300 300 301 302 304 305
316 311 311 311 305 306 305 306 306 308 302 298 297 295 292 291 291 290 289 288 287 286 285 286 287 287 288 288 290 291 290 292 292 293 293 294 295 297 297 296 297 298 299 300
315 312 314 306 304 304 304 303 303 300 299 298 295 292 291 289 289 288 288 288 288 286 285 286 287 287 287 288 288 290 290 291 291 290 291 292 294 295 295 295 295 295 295 296
314 314 308 306 305 305 306 303 302 302 299 297 294 294 292 289 287 287 288 288 288 287 286 286 287 288 287 286 287 287 288 288 289 290 290 291 291 291 291 292 293 292 292 293
313 313 314 310 306 304 304 307 301 301 300 298 297 300 295 288 286 286 288 288 287 287 286 286 286 286 287 287 286 286 286 286 287 288 288 288 289 290 290 289 290 290 291 291
312 312 309 305 304 303 308 307 300 301 300 299 299 294 288 286 286 285 287 287 287 286 286 285 285 286 286 286 286 286 286 286 285 285 285 285 286 287 287 287 287 288 288 289
310 311 312 302 303 306 303 300 299 298 298 295 292 290 288 286 287 287 287 287 286 286 285 285 284 285 285 285 286 286 285 286 285 285 285 284 284 284 284 284 285 285 286 286
307 306 299 301 303 301 301 299 298 297 295 294 292 290 289 288 287 287 286 286 285 285 284 284 283 283 284 284 285 285 285 285 285 284 285 285 284 283 283 283 282 282 282 282
304 300 299 299 299 300 299 298 297 295 294 293 292 290 289 288 287 286 285 284 284 284 283 283 282 282 282 283 283 284 284 284 284 284 284 284 283 283 281 280 280 280 281 281
301 299 298 298 298 298 297 295 294 293 293 292 291 290 288 287 286 285 284 283 283 282 282 282 281 281 281 281 281 282 282 283 282 283 283 283 283 282 281 279 279 279 279 279
308 300 302 299 297 296 295 293 293 292 291 290 290 288 287 285 285 284 283 282 281 281 281 280 280 279 279 280 280 281 281 281 281 282 282 282 282 282 282 280 279 278 278 277
302 300 301 298 296 295 294 292 291 290 290 289 288 287 285 284 283 282 282 281 280 279 279 279 279 279 279 279 279 279 280 279 280 281 281 281 281 281 281 280 280 279 278 276
300 299 298 297 296 294 293 291 290 289 288 287 286 285 284 283 282 282 281 280 279 278 278 278 278 279 279 279 278 278 278 278 278 279 279 279 279 279 279 279 279 279 278 276
298 299 297 296 295 293 291 290 289 288 287 286 285 285 284 283 282 281 280 280 279 279 279 279 279 278 278 278 278 278 278 278 277 278 279 278 279 279 279 278 278 278 277 276
299 298 297 295 293 292 291 290 289 288 286 285 285 284 283 282 281 280 280 280 279 279 279 278 278 278 278 278 278 277 277 277 276 277 278 278 278 278 278 277 277 277 276 275
298 297 295 294 293 291 291 290 289 287 286 285 284 283 282 281 280 280 280 280 279 279 278 278 278 278 278 278 277 277 277 276 276 277 277 277 277 276 276 276 276 276 275 274
298 297 296 295 293 292 291 290 289 287 286 284 283 282 282 281 281 280 280 279 279 278 278 278 278 278 278 277 276 275 275 275 276 276 276 275 275 275 275 275 275 274 274 274
298 296 296 294 293 292 291 289 288 286 285 284 283 282 282 281 280 280 279 279 279 279 279 277 277 277 277 276 275 274 275 274 275 275 274 274 274 274 274 274 274 273 273 272
296 295 294 293 292 291 290 288 287 287 285 284 283 282 282 281 280 279 279 279 279 278 277 277 277 276 276 274 274 274 274 274 274 274 274 273 273 273 273 273 272 272 272 271
295 293 293 292 291 290 289 289 288 287 285 284 283 282 281 280 279 279 279 279 280 278 277 277 276 275 274 274 273 274 273 273 273 273 273 273 272 272 272 272 271 271 271 270
294 293 292 291 291 290 289 288 287 285 284 283 282 282 281 280 279 279 279 279 278 278 277 276 275 275 273 273 272 273 273 273 273 272 272 272 271 271 271 271 271 270 270 270
294 293 292 291 290 290 288 287 285 284 283 283 282 281 279 280 279 279 280 281 279 277 276 275 275 274 273 273 272 273 273 273 272 272 272 272 271 271 270 270 270 269 269 269
294 293 292 290 290 289 288 286 284 283 282 282 281 279 279 279 279 279 278 278 277 276 275 275 275 274 273 273 272 273 273 272 272 272 272 272 271 271 270 270 270 269 269 269
293 292 291 290 289 288 286 285 283 282 281 280 279 279 279 279 278 279 278 277 276 276 275 274 274 274 273 272 272 273 272 272 272 271 271 271 270 270 270 270 270 269 269 268
291 290 289 288 287 285 284 284 282 281 280 280 280 279 279 279 278 278 277 276 275 275 275 274 274 275 274 273 273 273 272 272 271 271 270 270 270 270 270 270 269 269 268 268
289 288 286 286 285 284 283 282 282 282 280 281 282 281 280 279 278 277 276 276 276 276 275 275 274 274 274 273 272 271 271 271 270 270 269 269 269 269 269 268 268 268 267 267
Wind_Speed
7 8 5 3 7 10 4 3 3 7 6 4 6 7 11 13 15 18 21 24 26 28 29 34 38 40 42 40 36 36 38 40 39 36 34 32 30 28 25 25 23 21 18 19
7 7 5 6 6 2 8 10 9 12 7 5 6 6 10 13 14 16 18 20 22 23 25 28 31 35 36 38 38 35 37 35 33 33 32 30 26 29 29 29 28 27 27 26
3 11 8 5 3 6 6 7 3 4 7 8 6 7 9 10 13 15 17 18 21 22 23 26 30 30 33 32 33 35 33 34 33 30 28 27 26 28 29 29 29 31 30 28
5 9 5 6 7 7 9 7 10 13 9 8 9 8 8 8 9 12 14 16 19 23 21 23 23 25 25 28 32 34 34 33 31 28 27 27 28 29 28 27 29 29 30 29
4 7 6 8 8 7 5 4 3 8 10 11 11 10 10 8 8 9 11 12 14 16 23 19 21 21 24 27 28 30 32 30 29 29 28 28 28 27 27 27 27 28 29 30
4 5 5 10 11 5 4 6 9 10 13 13 11 5 4 4 6 7 9 10 12 13 15 19 19 19 20 23 24 26 27 27 27 27 27 26 26 26 23 23 24 25 25 28
7 6 5 7 12 9 5 5 10 10 10 15 8 5 10 6 6 7 7 9 10 13 15 17 17 18 19 20 25 22 19 24 26 25 25 25 24 24 23 22 23 24 25 25
3 4 4 7 9 4 8 15 14 13 12 16 18 14 10 8 7 6 7 9 10 11 13 15 16 16 18 21 19 19 19 19 22 24 22 25 27 25 25 25 25 26 26 27
5 3 4 4 6 12 13 15 14 16 15 17 17 14 11 10 8 7 7 8 9 10 12 14 15 16 17 19 17 17 18 19 20 21 22 23 25 27 27 29 28 28 29 30
7 5 7 8 9 11 13 14 14 14 15 15 16 14 13 11 9 7 7 8 8 9 11 13 14 15 15 16 16 16 17 19 18 19 20 20 19 21 24 28 27 26 29 29
4 7 9 9 11 13 14 14 14 13 13 14 15 14 12 11 9 7 7 7 8 9 10 11 12 13 15 16 16 15 16 16 18 17 18 18 20 24 23 26 29 28 26 25
2 16 6 16 15 16 16 15 13 14 14 13 13 14 12 10 8 7 6 7 8 8 8 9 10 12 14 15 16 16 15 16 17 17 17 18 18 17 22 27 28 30 30 26
5 19 11 19 18 15 16 15 14 13 13 14 13 12 11 10 8 8 6 7 7 8 8 8 9 12 14 15 15 16 15 16 15 16 17 17 17 18 19 18 19 22 28 28
17 16 18 19 20 17 16 15 15 14 13 13 13 12 11 10 9 7 6 5 6 6 7 7 9 12 12 13 14 16 16 17 16 16 16 17 17 17 17 18 19 20 21 28
18 6 16 16 18 18 17 17 16 15 15 14 12 11 11 10 8 6 4 4 4 4 6 6 7 8 11 13 15 16 14 15 16 13 14 15 14 15 15 16 17 18 20 21
13 10 18 20 19 18 16 16 15 16 15 14 13 12 11 9 7 5 3 1 2 3 5 6 8 10 12 13 14 11 11 15 15 12 13 14 14 14 16 16 17 18 19 20
17 18 20 20 21 20 18 15 14 15 15 14 13 13 11 9 7 4 2 0 1 3 6 8 10 11 12 13 13 11 11 12 14 12 13 13 14 15 15 16 17 17 17 21
13 13 16 18 20 20 18 16 15 16 16 15 15 14 13 9 8 5 2 2 3 5 6 9 10 12 12 12 13 11 11 12 12 13 13 14 14 14 15 16 16 17 17 17
11 13 15 16 18 18 17 17 17 17 18 17 15 13 11 9 7 5 4 4 5 7 10 11 12 12 12 13 12 9 11 12 12 12 13 15 14 14 15 15 16 17 17 17
12 14 14 16 16 17 17 16 19 19 17 16 15 12 10 9 7 5 5 6 6 6 9 11 12 12 12 12 14 8 11 12 12 13 14 14 14 15 15 16 16 17 16 16
14 15 17 18 19 20 19 15 16 17 17 15 13 11 9 8 7 6 7 6 11 10 11 12 12 8 6 12 13 9 11 12 13 14 14 15 15 15 15 16 16 17 16 16
15 14 16 16 16 17 16 16 17 17 16 15 14 11 10 9 8 7 8 6 9 14 13 10 7 11 13 15 11 11 12 13 15 15 15 16 16 17 17 17 17 17 17 16
14 14 14 15 15 15 16 18 18 17 16 14 12 11 10 7 6 4 5 10 11 14 13 8 13 16 16 16 11 13 14 15 16 17 17 18 18 19 18 18 18 18 17 17
14 15 15 15 17 16 18 18 18 16 15 14 13 11 10 8 6 7 8 11 14 15 15 11 16 18 17 16 13 14 15 16 18 18 19 20 20 21 20 20 19 19 19 18
14 15 16 16 16 16 16 16 17 16 14 13 12 11 10 9 8 7 10 10 12 15 12 13 17 18 20 17 14 16 19 19 20 21 22 22 22 21 20 20 20 20 20 21
12 12 13 15 12 11 12 15 13 11 11 9 8 8 7 7 7 8 8 10 11 10 11 12 11 15 18 18 19 20 20 21 22 22 22 23 21 21 21 21 21 21 21 20
11 11 10 12 11 10 10 11 11 9 10 9 7 8 7 8 9 9 9 8 9 11 12 13 14 16 18 18 20 19 20 21 22 23 22 21 21 20 21 21 21 21 21 21
Wind_Direction
129 112 78 43 9 10 27 354 334 130 109 74 41 25 21 18 14 17 18 14 11 9 9 14 23 26 30 35 40 46 54 54 55 55 55 56 51 51 45 45 39 40 31 27
187 204 167 93 35 61 75 92 104 122 102 101 81 54 31 23 21 22 18 15 11 11 15 17 18 26 36 29 39 42 52 47 52 54 52 56 48 50 53 50 50 48 43 35
221 195 208 203 95 93 72 57 154 182 108 145 108 64 36 22 24 21 15 14 15 14 16 18 22 24 30 31 37 43 44 48 47 46 46 44 45 49 46 43 41 42 43 43
160 168 226 105 120 108 107 70 90 105 134 124 112 101 66 43 33 27 19 16 15 16 23 25 27 26 28 37 41 41 43 45 45 41 43 43 46 47 43 40 39 37 37 36
233 218 109 166 190 177 201 126 141 149 152 150 147 135 70 48 42 34 23 23 24 18 17 32 29 29 28 34 37 39 41 42 42 43 43 42 43 44 41 37 37 35 33 30
246 249 216 102 133 145 150 180 169 175 175 174 179 229 98 65 51 46 32 30 31 32 32 26 29 32 32 30 30 36 29 34 36 39 39 39 39 40 40 35 33 33 31 30
257 253 106 127 140 144 205 115 152 161 162 181 185 83 131 107 78 75 40 41 36 35 34 31 30 28 32 30 28 23 31 23 31 31 31 35 35 36 34 33 31 31 30 27
243 250 177 150 149 222 115 130 133 128 129 118 126 125 122 117 83 74 67 53 45 41 37 32 31 31 29 29 23 22 23 28 24 26 27 19 24 27 26 28 26 26 26 26
8 47 114 127 106 127 138 136 137 133 135 136 131 131 130 122 117 97 80 63 52 47 41 36 31 32 28 24 21 20 21 26 24 25 19 18 18 16 20 20 20 17 15 12
181 126 130 130 118 127 136 135 135 136 136 136 132 134 131 125 118 104 85 69 59 51 44 36 30 29 29 21 21 19 22 20 22 18 22 17 18 18 14 17 15 13 11 8
85 147 142 147 142 135 134 136 134 132 134 136 136 135 133 126 119 104 87 68 60 51 42 34 28 26 22 20 19 21 20 18 18 15 15 17 11 9 8 3 6 6 5 2
194 173 180 161 155 150 145 144 143 139 136 136 140 136 134 127 117 111 97 78 62 51 42 31 25 21 21 21 19 21 14 15 8 11 10 11 9 8 358 355 357 354 354 357
157 161 146 152 152 154 151 149 146 144 142 139 138 138 134 130 136 120 98 79 63 46 36 26 19 18 19 21 17 17 15 9 9 7 6 5 3 360 354 353 353 347 342 345
136 141 143 158 157 156 153 150 145 142 142 144 143 140 140 142 128 125 109 86 68 44 33 24 12 11 12 12 14 13 12 3 8 1 358 357 356 352 346 342 342 342 342 334
155 139 165 160 158 157 156 152 151 151 152 150 149 152 154 150 147 136 120 84 51 38 17 7 359 3 9 12 12 5 3 353 1 357 348 351 345 340 337 338 337 335 336 332
168 156 158 161 161 163 163 163 161 163 162 162 162 163 159 159 156 152 146 110 123 352 345 349 2 6 7 6 5 356 353 343 351 352 344 340 337 335 334 334 334 333 335 329
164 163 164 167 170 171 173 174 176 173 170 170 170 167 164 167 169 176 199 237 333 333 345 357 358 358 355 352 347 346 345 339 344 343 338 335 332 333 331 328 328 329 329 325
178 179 180 178 176 174 175 176 178 176 176 176 178 180 184 182 193 216 230 279 308 327 340 349 347 343 338 336 337 343 338 335 337 335 331 327 327 332 325 323 324 322 322 322
179 173 175 178 179 178 177 176 177 176 183 190 189 191 194 202 213 227 256 279 304 330 321 334 332 327 326 329 333 341 330 331 332 328 326 324 330 322 322 320 319 319 319 320
166 168 168 169 175 180 177 179 189 193 193 192 195 198 205 214 219 239 263 277 287 287 309 316 321 321 322 325 336 344 322 323 323 321 319 321 320 318 320 318 318 317 317 316
167 167 170 174 179 186 196 201 200 197 196 196 200 206 219 224 228 243 264 295 291 298 305 312 310 302 314 300 323 311 311 315 315 315 315 313 314 315 313 313 314 315 314 312
189 189 192 195 197 199 200 201 198 199 201 201 206 215 226 231 236 246 262 247 273 298 307 308 295 282 301 309 312 300 304 305 306 308 308 307 306 306 308 308 309 310 310 309
198 202 202 202 203 205 205 203 202 203 207 210 216 222 221 222 238 250 286 297 284 286 297 292 276 290 304 306 309 303 302 302 302 301 301 302 301 299 300 301 303 303 304 305
208 210 210 208 211 211 209 207 205 207 211 216 223 222 222 231 259 283 280 271 286 285 283 277 274 293 303 302 300 301 301 301 300 300 299 297 297 296 294 295 297 299 298 300
214 218 219 219 215 212 212 211 209 212 214 220 227 224 231 242 250 241 257 278 280 287 283 288 295 298 304 299 295 293 296 298 299 297 299 299 297 294 293 293 292 295 293 295
220 223 225 217 206 202 204 210 204 210 210 211 216 224 239 255 267 285 293 299 301 297 291 294 292 291 299 298 296 297 294 296 298 299 299 299 297 293 292 291 291 292 293 291
214 215 211 206 201 199 199 201 192 200 201 198 205 244 249 254 277 294 294 308 304 302 302 299 296 295 295 293 293 295 293 294 296 297 299 298 298 296 294 292 292 290 289 288